North Bend, OR

1:45 PM PDT on April 24, 2018 (GMT -0700)
North Bend Municipal

Weather History for KOTH - March, 2013

Change the Weather History Date:

Tuesday, March 19, 2013

  Actual Average Record
Temperature  
Mean Temperature 51 °F 48 °F  
Max Temperature 57 °F 54 °F 84 °F (1914)
Min Temperature 45 °F 42 °F 28 °F (1965)
Degree Days  
Heating Degree Days 14 17  
Month to date heating degree days 320 332  
Since 1 July heating degree days 3358 3506  
Cooling Degree Days 0 0  
Month to date cooling degree days 0 0  
Year to date cooling degree days 0 0  
Moisture  
Dew Point 45 °F    
Average Humidity 81    
Maximum Humidity 100    
Minimum Humidity 57    
Precipitation  
Precipitation 0.58 in 0.25 in 2.08 in (1938)
Month to date precipitation 2.55 5.01  
Year to date precipitation 9.32 22.79  
Sea Level Pressure  
Sea Level Pressure 29.94 in    
Wind  
Wind Speed 7 mph (SSE)    
Max Wind Speed 15 mph    
Max Gust Speed 25 mph    
Visibility 10 miles    
Events      
T = Trace of Precipitation, MM = Missing Value Source: NWS Daily Summary

Daily Weather History Graph

Daily Weather History Graph

Search for Another Location

Airport or City:

Astronomy

Mar. 19, 2013 Rise Set
Actual Time 7:21 AM PDT 7:28 PM PDT
Civil Twilight 6:52 AM PDT 7:57 PM PDT
Nautical Twilight 6:19 AM PDT 8:30 PM PDT
Astronomical Twilight 5:45 AM PDT 9:04 PM PDT
Moon 12:07 PM PDT (3/19) 2:29 AM PDT (3/19)
Length of Visible Light 13h 04m
Length of Day
12h 07m
Waxing Crescent, 51% of the Moon is Illuminated
Mar 19
Waxing Crescent
Mar 27
Full
Apr 2
Last Quarter
Apr 10
New
Apr 18
First Quarter

Hourly Weather History & Observations

Time (PDT) Temp. Windchill Dew Point Humidity Pressure Visibility Wind Dir Wind Speed Gust Speed Precip Events Conditions
12:15 AM 50.0 °F - 39.2 °F 66% 30.09 in 10.0 mi East 6.9 mph - N/A   Scattered Clouds
12:55 AM 48.2 °F - 39.2 °F 71% 30.09 in 10.0 mi Calm Calm - N/A   Mostly Cloudy
1:15 AM 48.2 °F - 39.2 °F 71% 30.09 in 10.0 mi Calm Calm - N/A   Overcast
1:35 AM 48.2 °F - 39.2 °F 71% 30.08 in 10.0 mi SSE 4.6 mph - N/A   Mostly Cloudy
1:55 AM 46.4 °F 45.2 °F 41.0 °F 81% 30.08 in 10.0 mi SSE 3.5 mph - N/A   Overcast
2:15 AM 48.2 °F - 39.2 °F 71% 30.08 in 10.0 mi SSE 4.6 mph - N/A   Overcast
2:35 AM 46.4 °F 43.5 °F 41.0 °F 81% 30.07 in 10.0 mi SE 5.8 mph - N/A   Mostly Cloudy
2:55 AM 46.4 °F 43.5 °F 41.0 °F 81% 30.07 in 10.0 mi SE 5.8 mph - N/A   Overcast
3:15 AM 46.4 °F 45.2 °F 42.8 °F 87% 30.06 in 10.0 mi SE 3.5 mph - N/A   Overcast
3:35 AM 46.4 °F 44.3 °F 41.0 °F 81% 30.06 in 10.0 mi SSE 4.6 mph - N/A   Overcast
3:55 AM 46.4 °F 44.3 °F 41.0 °F 81% 30.06 in 10.0 mi SSE 4.6 mph - N/A   Overcast
4:15 AM 46.4 °F 44.3 °F 41.0 °F 81% 30.05 in 10.0 mi SSE 4.6 mph - N/A   Overcast
4:35 AM 46.4 °F 44.3 °F 41.0 °F 81% 30.04 in 10.0 mi SSE 4.6 mph - N/A   Overcast
4:55 AM 46.4 °F 45.2 °F 41.0 °F 81% 30.04 in 10.0 mi SSE 3.5 mph - N/A   Overcast
5:15 AM 46.4 °F 44.3 °F 41.0 °F 81% 30.04 in 10.0 mi SE 4.6 mph - N/A   Overcast
5:35 AM 46.4 °F 44.3 °F 41.0 °F 81% 30.04 in 10.0 mi SSE 4.6 mph - N/A   Overcast
5:55 AM 46.4 °F 43.5 °F 41.0 °F 81% 30.04 in 10.0 mi SSE 5.8 mph - N/A   Overcast
6:15 AM 46.4 °F 45.2 °F 41.0 °F 81% 30.04 in 10.0 mi SE 3.5 mph - N/A   Overcast
6:35 AM 46.4 °F - 41.0 °F 81% 30.05 in 10.0 mi Calm Calm - N/A   Overcast
6:55 AM 46.4 °F - 41.0 °F 81% 30.05 in 10.0 mi Calm Calm - N/A   Mostly Cloudy
7:15 AM 46.4 °F 43.5 °F 41.0 °F 81% 30.03 in 10.0 mi ESE 5.8 mph - N/A   Overcast
7:35 AM 46.4 °F 44.3 °F 42.8 °F 87% 30.03 in 10.0 mi SSE 4.6 mph - N/A   Overcast
7:55 AM 44.6 °F 41.4 °F 42.8 °F 93% 30.03 in 10.0 mi SSE 5.8 mph - N/A   Overcast
8:15 AM 46.4 °F 44.3 °F 42.8 °F 87% 30.03 in 10.0 mi SE 4.6 mph - N/A   Scattered Clouds
8:35 AM 48.2 °F - 42.8 °F 82% 30.02 in 10.0 mi Calm Calm - N/A   Mostly Cloudy
8:55 AM 48.2 °F - 42.8 °F 82% 30.02 in 10.0 mi SE 3.5 mph - N/A   Overcast
9:15 AM 48.2 °F - 42.8 °F 82% 30.02 in 10.0 mi SE 3.5 mph - N/A   Overcast
9:35 AM 48.2 °F - 42.8 °F 82% 30.02 in 10.0 mi SSE 4.6 mph - N/A   Overcast
9:55 AM 48.2 °F - 42.8 °F 82% 30.01 in 10.0 mi SE 5.8 mph - N/A   Overcast
10:15 AM 48.2 °F - 42.8 °F 82% 30.01 in 10.0 mi SE 8.1 mph - N/A   Overcast
10:35 AM 50.0 °F - 42.8 °F 76% 30.01 in 10.0 mi South 3.5 mph - N/A   Overcast
10:55 AM 51.8 °F - 42.8 °F 71% 30.01 in 10.0 mi South 5.8 mph - N/A   Overcast
11:15 AM 51.8 °F - 44.6 °F 76% 30.00 in 10.0 mi SSE 4.6 mph - N/A   Overcast
11:35 AM 51.8 °F - 44.6 °F 76% 29.99 in 10.0 mi SSE 4.6 mph - N/A   Overcast
11:55 AM 53.6 °F - 44.6 °F 72% 29.98 in 10.0 mi SE 5.8 mph - N/A   Overcast
12:15 PM 55.4 °F - 46.4 °F 72% 29.98 in 10.0 mi ESE 4.6 mph - N/A   Overcast
12:35 PM 55.4 °F - 46.4 °F 72% 29.97 in 10.0 mi East 4.6 mph - N/A   Overcast
12:55 PM 57.2 °F - 44.6 °F 63% 29.96 in 10.0 mi East 4.6 mph - N/A   Overcast
1:15 PM 57.2 °F - 46.4 °F 67% 29.95 in 10.0 mi WNW 4.6 mph - N/A   Overcast
1:35 PM 57.2 °F - 44.6 °F 63% 29.95 in 10.0 mi SW 11.5 mph 17.3 mph N/A   Overcast
1:55 PM 57.2 °F - 42.8 °F 59% 29.95 in 10.0 mi SSW 12.7 mph 20.7 mph N/A   Overcast
2:15 PM 57.2 °F - 39.2 °F 51% 29.93 in 10.0 mi SSW 12.7 mph 21.9 mph N/A   Overcast
2:35 PM 55.4 °F - 41.0 °F 58% 29.93 in 10.0 mi SSW 12.7 mph 23.0 mph N/A   Overcast
2:55 PM 53.6 °F - 39.2 °F 58% 29.92 in 10.0 mi SW 11.5 mph 25.3 mph N/A   Overcast
3:15 PM 55.4 °F - 37.4 °F 51% 29.92 in 10.0 mi SSW 10.4 mph - N/A   Overcast
3:35 PM 55.4 °F - 37.4 °F 51% 29.91 in 10.0 mi SSW 4.6 mph - N/A   Overcast
3:55 PM 53.6 °F - 41.0 °F 62% 29.90 in 10.0 mi SSW 5.8 mph - N/A   Overcast
4:15 PM 53.6 °F - 44.6 °F 72% 29.88 in 10.0 mi SSE 6.9 mph - N/A   Overcast
4:35 PM 55.4 °F - 44.6 °F 67% 29.87 in 10.0 mi South 3.5 mph - N/A   Overcast
4:55 PM 53.6 °F - 46.4 °F 77% 29.86 in 10.0 mi SSE 9.2 mph - N/A   Overcast
5:15 PM 53.6 °F - 48.2 °F 82% 29.85 in 9.0 mi South 5.8 mph - N/A   Overcast
5:35 PM 53.6 °F - 50.0 °F 88% 29.84 in 7.0 mi South 6.9 mph - 0.02 in   Overcast
5:55 PM 53.6 °F - 51.8 °F 94% 29.83 in 10.0 mi South 4.6 mph - 0.02 in   Overcast
6:15 PM 53.6 °F - 51.8 °F 94% 29.81 in 10.0 mi SE 6.9 mph - N/A   Overcast
6:35 PM 53.6 °F - 51.8 °F 94% 29.79 in 10.0 mi SSE 4.6 mph - N/A   Overcast
6:55 PM 51.8 °F - 50.0 °F 94% 29.78 in 4.0 mi SSE 5.8 mph - 0.04 in   Overcast
7:15 PM 51.8 °F - 50.0 °F 94% 29.78 in 3.0 mi South 3.5 mph - 0.04 in   Overcast
7:35 PM 51.8 °F - 51.8 °F 100% 29.77 in 9.0 mi SSE 8.1 mph - 0.09 in   Overcast
7:55 PM 51.8 °F - 51.8 °F 100% 29.77 in 10.0 mi SSE 9.2 mph - 0.11 in   Overcast
8:15 PM 51.8 °F - 51.8 °F 100% 29.77 in 9.0 mi SSE 8.1 mph - 0.04 in   Overcast
8:35 PM 51.8 °F - 51.8 °F 100% 29.76 in 8.0 mi SSE 11.5 mph - 0.07 in   Overcast
8:55 PM 51.8 °F - 51.8 °F 100% 29.76 in 10.0 mi SSE 10.4 mph - 0.08 in   Overcast
9:15 PM 51.8 °F - 51.8 °F 100% 29.75 in 10.0 mi SSE 9.2 mph - N/A   Overcast
9:35 PM 51.8 °F - 51.8 °F 100% 29.74 in 10.0 mi SSE 8.1 mph - N/A   Overcast
9:55 PM 51.8 °F - 51.8 °F 100% 29.73 in 10.0 mi SSE 15.0 mph 19.6 mph 0.06 in   Overcast
10:15 PM 51.8 °F - 51.8 °F 100% 29.74 in 10.0 mi SSE 10.4 mph - 0.06 in   Overcast
10:35 PM 51.8 °F - 51.8 °F 100% 29.74 in 9.0 mi SSE 11.5 mph 17.3 mph 0.12 in   Overcast
10:55 PM 51.8 °F - 51.8 °F 100% 29.73 in 9.0 mi SSE 11.5 mph - 0.13 in   Overcast
11:15 PM 51.8 °F - 51.8 °F 100% 29.73 in 9.0 mi SSE 12.7 mph - 0.05 in   Overcast
11:35 PM 51.8 °F - 51.8 °F 100% 29.73 in 9.0 mi SSE 13.8 mph - 0.10 in   Overcast
11:55 PM 51.8 °F - 51.8 °F 100% 29.72 in 10.0 mi SSE 12.7 mph 17.3 mph 0.13 in   Overcast